Location: Noordwijk
(52.2400°N, 4.4500°E)
Time: 19:21:29
(UTC+00:00)

N. Korean satellite - Visible Passes

Search period start: 27 November 2022 00:00
Search period end: 07 December 2022 00:00
Orbit: 422 x 454 km, 97.3° (Epoch: 26 November)

Date Brightness Start Highest point End Pass type
(mag) Time Alt. Az. Time Alt. Az. Time Alt. Az.
27 Nov 7.3 04:54:33 10° NNE 04:57:56 50° E 05:01:16 10° S visible
27 Nov 8.0 06:27:56 10° NNW 06:30:06 16° WNW 06:32:16 10° W visible
27 Nov 9.6 17:02:50 10° SW 17:05:13 18° W 17:07:37 10° NW visible
28 Nov 9.2 04:16:32 10° NE 04:19:05 19° E 04:21:37 10° SE visible
28 Nov 6.9 05:48:32 10° N 05:51:45 37° WNW 05:54:55 10° SW visible
28 Nov 7.6 16:23:04 10° S 16:26:20 47° W 16:29:39 10° NNW visible
29 Nov 6.5 05:09:42 10° NNE 05:13:10 78° ESE 05:16:35 10° S visible
29 Nov 8.4 06:43:52 10° NW 06:45:09 12° WNW 06:46:26 10° W visible
29 Nov 9.8 17:19:00 10° WSW 17:20:32 13° W 17:22:05 10° WNW visible
30 Nov 8.6 04:31:20 10° NE 04:34:20 27° E 04:37:18 10° SSE visible
30 Nov 7.4 06:03:53 10° N 06:06:48 26° WNW 06:09:41 10° SW visible
30 Nov 8.5 16:38:27 10° SSW 16:41:30 31° W 16:44:37 10° NNW visible
01 Dec 9.9 03:54:17 10° ENE 03:55:15 11° E 03:56:14 10° ESE visible
01 Dec 6.3 05:24:47 10° N 05:28:13 70° WNW 05:31:37 10° SSW visible
02 Dec 7.8 04:46:09 10° NNE 04:49:25 39° E 04:52:37 10° S visible
02 Dec 7.8 06:19:12 10° NNW 06:21:41 19° WNW 06:24:10 10° WSW visible
02 Dec 9.2 16:53:52 10° SSW 16:56:33 22° W 16:59:18 10° NW visible
03 Dec 9.5 04:08:12 10° NE 04:10:20 16° E 04:12:28 10° SE visible
03 Dec 6.6 05:39:48 10° N 05:43:07 46° WNW 05:46:23 10° SW visible
03 Dec 7.1 16:14:13 10° S 16:17:33 61° WSW 16:20:58 10° NNW visible
04 Dec 6.9 05:00:54 10° NNE 05:04:19 60° ESE 05:07:39 10° S visible
04 Dec 8.2 06:34:32 10° NNW 06:36:24 14° WNW 06:38:15 10° W visible
04 Dec 9.6 17:09:21 10° SW 17:11:30 16° W 17:13:40 10° NW visible
05 Dec 9.0 04:22:32 10° NE 04:25:15 22° E 04:27:57 10° SE visible
05 Dec 7.1 05:54:44 10° N 05:57:50 32° WNW 06:00:53 10° SW visible
05 Dec 8.0 16:29:08 10° S 16:32:21 40° W 16:35:37 10° NNW visible
06 Dec 6.3 05:15:36 10° NNE 05:19:02 90° ESE 05:22:25 10° SSW visible
06 Dec 8.5 06:50:23 10° NW 06:50:56 10° WNW 06:51:30 10° WNW visible
06 Dec 10.0 17:25:16 10° WSW 17:26:20 11° W 17:27:24 10° WNW visible
